Location: Caltech
(34.1382°N, 118.1253°W)
Time: 01:34:15
(UTC-08:00)

HO-68 - Visible Passes

Search period start: 09 December 2016 00:00
Search period end: 19 December 2016 00:00
Orbit: 1193 x 1204 km, 100.1° (Epoch: 09 December)

Date Brightness Start Highest point End Pass type
(mag) Time Alt. Az. Time Alt. Az. Time Alt. Az.
09 Dec ? 06:02:26 10° ENE 06:04:11 11° E 06:05:55 10° ESE visible
09 Dec ? 18:09:58 10° SE 18:16:35 42° ENE 18:23:15 10° N visible
09 Dec ? 19:58:09 10° SSW 20:04:19 31° W 20:10:34 10° NW visible
10 Dec ? 17:53:41 10° SE 17:59:50 32° ENE 18:06:00 10° N visible
10 Dec ? 19:40:37 10° S 19:47:18 42° W 19:54:03 10° NNW visible
11 Dec ? 17:37:39 10° ESE 17:43:08 24° ENE 17:48:38 10° NNE visible
11 Dec ? 19:23:19 10° S 19:30:19 57° WSW 19:37:23 10° NNW visible
12 Dec ? 17:21:55 10° E 17:26:28 18° ENE 17:31:02 10° NNE visible
12 Dec ? 19:06:14 10° S 19:13:22 76° WSW 19:20:35 10° NNW visible
13 Dec ? 17:06:43 10° E 17:09:52 13° ENE 17:13:01 10° NNE visible
13 Dec ? 18:49:19 10° SSE 18:56:29 83° ENE 19:03:42 10° NNW visible
13 Dec ? 20:41:19 10° WSW 20:44:50 14° W 20:48:23 10° WNW visible
14 Dec ? 06:22:53 10° NE 06:27:41 19° E 06:32:27 10° SE visible
14 Dec ? 18:32:35 10° SSE 18:39:37 63° ENE 18:46:42 10° N visible
14 Dec ? 20:22:43 10° SW 20:27:43 20° W 20:32:46 10° NW visible
15 Dec ? 06:07:28 10° ENE 06:10:33 13° E 06:13:37 10° ESE visible
15 Dec ? 18:16:01 10° SE 18:22:48 48° ENE 18:29:37 10° N visible
15 Dec ? 20:04:43 10° SSW 20:10:38 28° W 20:16:36 10° NW visible
16 Dec ? 17:59:39 10° SE 18:06:02 36° ENE 18:12:25 10° N visible
16 Dec ? 19:47:05 10° SSW 19:53:35 37° W 20:00:10 10° NNW visible
17 Dec ? 17:43:30 10° ESE 17:49:18 27° ENE 17:55:06 10° N visible
17 Dec ? 19:29:42 10° S 19:36:36 50° W 19:43:34 10° NNW visible
18 Dec ? 17:27:38 10° ESE 17:32:37 21° ENE 17:37:37 10° NNE visible
18 Dec ? 19:12:32 10° S 19:19:39 68° WSW 19:26:49 10° NNW visible
